User: anonymous   Login
Location: Unspecified
(0.0000°N, 0.0000°E)
Time: 04:01:37
(UTC+00:00)
Language:

A-11 Canister half - Orbit

View from above orbital plane
View from above orbital plane
View from above satellite
View from above satellite

Ground track
Ground track

The orbit data is extracted from the following two-line orbital elements,

1    51U 60009C   16037.89881452 -.00000086 +00000-0 -65289-5 0  9994
2    51 047.2100 234.3477 0107323 107.4056 253.8500 12.18264492469945
Epoch (UTC): 06 February 2016 21:34:17
Eccentricity: 0.0107323
inclination: 47.2100°
perigee height: 1514 km
apogee height: 1686 km
right ascension of ascending node: 234.3477°
argument of perigee: 107.4056°
revolutions per day: 12.18264492
mean anomaly at epoch: 253.8500°
orbit number at epoch: 46994

The dashed part of the orbit path shows where the satellite is in the earth's shadow,  

DLR